sat.trackr.live / text

‹ back to catalog

STARLINK-5679

NORAD 55467 · 2023-015U

PAYLOAD ACTIVE UNKNOWN

§ Identity

Operator
Country
US
Launch date
2023-02-02
Launch site
AFETR
Launch vehicle
Mass (kg)
RCS (m²)

Purposes: comms

External: N2YO · Heavens-Above · Gunter

§ Orbital elements

Epoch: 2026-09-20T11:11:25.791072Z

Period
94.27 min
Inclination
43.0035°
Eccentricity
0.0001793
Mean motion
15.27578042 rev/d
Perigee alt
481.8 km
Apogee alt
484.3 km
Semi-major
6,861.2 km
B*
2.1886e-5
RAAN
308.4597°
Arg perigee
277.2737°
Mean anomaly
82.7911°
Rev number
20,051

§ Raw data

STARLINK-56791 55467U 23015U   26263.46627073  .00000340  00000+0  21886-4 0  99972 55467  43.0035 308.4597 0001793 277.2737  82.7911 15.27578042200512

JSON: /api/v1/satellites/55467 · /tle

For live sub-satellite position, see the globe view (requires WebGL).

§ Visibility from observer

Set your observer location to see the next 7 days of passes ≥ 10°. The values pass through the URL so the page stays shareable.

No JS? Fill the form by hand. The geolocation button needs JavaScript.